Year,Month,Day,Hour,Minute,Value (Times are PST for barometer in hPa)
2008,01,03,00,00,1005.63
2008,01,03,00,01,1005.66
2008,01,03,00,02,1005.69
2008,01,03,00,03,1005.69
2008,01,03,00,04,1005.66
2008,01,03,00,05,1005.69
2008,01,03,00,06,1005.69
2008,01,03,00,07,1005.69
2008,01,03,00,08,1005.66
2008,01,03,00,09,1005.69
2008,01,03,00,10,1005.62
2008,01,03,00,11,1005.59
2008,01,03,00,12,1005.55
2008,01,03,00,13,1005.52
2008,01,03,00,14,1005.52
2008,01,03,00,15,1005.45
2008,01,03,00,16,1005.42
2008,01,03,00,17,1005.39
2008,01,03,00,18,1005.32
2008,01,03,00,19,1005.39
2008,01,03,00,20,1005.35
2008,01,03,00,21,1005.35
2008,01,03,00,22,1005.35
2008,01,03,00,23,1005.41
2008,01,03,00,24,1005.33
2008,01,03,00,25,1005.28
2008,01,03,00,26,1005.25
2008,01,03,00,27,1005.22
2008,01,03,00,28,1005.22
2008,01,03,00,29,1005.22
2008,01,03,00,30,1005.18
2008,01,03,00,31,1005.18
2008,01,03,00,32,1005.18
2008,01,03,00,33,1005.18
2008,01,03,00,34,1005.22
2008,01,03,00,35,1005.22
2008,01,03,00,36,1005.15
2008,01,03,00,37,1005.11
2008,01,03,00,38,1005.08
2008,01,03,00,39,1005.05
2008,01,03,00,40,1005.05
2008,01,03,00,41,1005.01
2008,01,03,00,42,1005.04
2008,01,03,00,43,1004.98
2008,01,03,00,44,1005.01
2008,01,03,00,45,1004.98
2008,01,03,00,46,1004.98
2008,01,03,00,47,1004.98
2008,01,03,00,48,1005.05
2008,01,03,00,49,1005.05
2008,01,03,00,50,1005.01
2008,01,03,00,51,1005.01
2008,01,03,00,52,1004.98
2008,01,03,00,53,1004.95
2008,01,03,00,54,1004.95
2008,01,03,00,55,1004.95
2008,01,03,00,56,1004.91
2008,01,03,00,57,1004.91
2008,01,03,00,58,1004.88
2008,01,03,00,59,1004.84
2008,01,03,01,00,1004.81
2008,01,03,01,01,1004.81
2008,01,03,01,02,1004.81
2008,01,03,01,03,1004.78
2008,01,03,01,04,1004.78
2008,01,03,01,05,1004.78
2008,01,03,01,06,1004.74
2008,01,03,01,07,1004.74
2008,01,03,01,08,1004.74
2008,01,03,01,09,1004.71
2008,01,03,01,10,1004.71
2008,01,03,01,11,1004.71
2008,01,03,01,12,1004.67
2008,01,03,01,13,1004.67
2008,01,03,01,14,1004.64
2008,01,03,01,15,1004.67
2008,01,03,01,16,1004.64
2008,01,03,01,17,1004.64
2008,01,03,01,18,1004.64
2008,01,03,01,19,1004.64
2008,01,03,01,20,1004.64
2008,01,03,01,21,1004.57
2008,01,03,01,22,1004.61
2008,01,03,01,23,1004.54
2008,01,03,01,24,1004.54
2008,01,03,01,25,1004.50
2008,01,03,01,26,1004.50
2008,01,03,01,27,1004.54
2008,01,03,01,28,1004.54
2008,01,03,01,29,1004.54
2008,01,03,01,30,1004.54
2008,01,03,01,31,1004.54
2008,01,03,01,32,1004.57
2008,01,03,01,33,1004.57
2008,01,03,01,34,1004.54
2008,01,03,01,35,1004.54
2008,01,03,01,36,1004.57
2008,01,03,01,37,1004.50
2008,01,03,01,38,1004.47
2008,01,03,01,39,1004.47
2008,01,03,01,40,1004.44
2008,01,03,01,41,1004.44
2008,01,03,01,42,1004.40
2008,01,03,01,43,1004.34
2008,01,03,01,44,1004.30
2008,01,03,01,45,1004.30
2008,01,03,01,46,1004.23
2008,01,03,01,47,1004.27
2008,01,03,01,48,1004.23
2008,01,03,01,49,1004.23
2008,01,03,01,50,1004.17
2008,01,03,01,51,1004.17
2008,01,03,01,52,1004.17
2008,01,03,01,53,1004.20
2008,01,03,01,54,1004.17
2008,01,03,01,55,1004.20
2008,01,03,01,56,1004.20
2008,01,03,01,57,1004.20
2008,01,03,01,58,1004.13
2008,01,03,01,59,1004.10
2008,01,03,02,00,1004.13
2008,01,03,02,01,1004.10
2008,01,03,02,02,1004.10
2008,01,03,02,03,1004.13
2008,01,03,02,04,1004.13
2008,01,03,02,05,1004.13
2008,01,03,02,06,1004.13
2008,01,03,02,07,1004.20
2008,01,03,02,08,1004.13
2008,01,03,02,09,1004.13
2008,01,03,02,10,1004.06
2008,01,03,02,11,1004.03
2008,01,03,02,12,1004.06
2008,01,03,02,13,1004.00
2008,01,03,02,14,1004.00
2008,01,03,02,15,1004.00
2008,01,03,02,16,1003.93
2008,01,03,02,17,1003.96
2008,01,03,02,18,1003.93
2008,01,03,02,19,1003.96
2008,01,03,02,20,1003.90
2008,01,03,02,21,1003.93
2008,01,03,02,22,1003.83
2008,01,03,02,23,1003.79
2008,01,03,02,24,1003.79
2008,01,03,02,25,1003.76
2008,01,03,02,26,1003.76
2008,01,03,02,27,1003.69
2008,01,03,02,28,1003.76
2008,01,03,02,29,1003.69
2008,01,03,02,30,1003.76
2008,01,03,02,31,1003.79
2008,01,03,02,32,1003.76
2008,01,03,02,33,1003.76
2008,01,03,02,34,1003.76
2008,01,03,02,35,1003.73
2008,01,03,02,36,1003.69
2008,01,03,02,37,1003.66
2008,01,03,02,38,1003.66
2008,01,03,02,39,1003.59
2008,01,03,02,40,1003.59
2008,01,03,02,41,1003.52
2008,01,03,02,42,1003.56
2008,01,03,02,43,1003.56
2008,01,03,02,44,1003.59
2008,01,03,02,45,1003.59
2008,01,03,02,46,1003.62
2008,01,03,02,47,1003.59
2008,01,03,02,48,1003.59
2008,01,03,02,49,1003.56
2008,01,03,02,50,1003.52
2008,01,03,02,51,1003.49
2008,01,03,02,52,1003.51
2008,01,03,02,53,1003.42
2008,01,03,02,54,1003.42
2008,01,03,02,55,1003.35
2008,01,03,02,56,1003.35
2008,01,03,02,57,1003.39
2008,01,03,02,58,1003.32
2008,01,03,02,59,1003.32
2008,01,03,03,00,1003.32
2008,01,03,03,01,1003.35
2008,01,03,03,02,1003.29
2008,01,03,03,03,1003.32
2008,01,03,03,04,1003.32
2008,01,03,03,05,1003.29
2008,01,03,03,06,1003.29
2008,01,03,03,07,1003.35
2008,01,03,03,08,1003.29
2008,01,03,03,09,1003.25
2008,01,03,03,10,1003.29
2008,01,03,03,11,1003.22
2008,01,03,03,12,1003.18
2008,01,03,03,13,1003.08
2008,01,03,03,14,1003.01
2008,01,03,03,15,1003.01
2008,01,03,03,16,1003.08
2008,01,03,03,17,1003.05
2008,01,03,03,18,1003.08
2008,01,03,03,19,1003.05
2008,01,03,03,20,1003.12
2008,01,03,03,21,1003.08
2008,01,03,03,22,1002.98
2008,01,03,03,23,1003.00
2008,01,03,03,24,1002.88
2008,01,03,03,25,1002.88
2008,01,03,03,26,1002.85
2008,01,03,03,27,1002.85
2008,01,03,03,28,1002.88
2008,01,03,03,29,1002.85
2008,01,03,03,30,1002.88
2008,01,03,03,31,1002.88
2008,01,03,03,32,1002.91
2008,01,03,03,33,1002.88
2008,01,03,03,34,1002.88
2008,01,03,03,35,1002.78
2008,01,03,03,36,1002.68
2008,01,03,03,37,1002.64
2008,01,03,03,38,1002.61
2008,01,03,03,39,1002.61
2008,01,03,03,40,1002.57
2008,01,03,03,41,1002.51
2008,01,03,03,42,1002.51
2008,01,03,03,43,1002.47
2008,01,03,03,44,1002.37
2008,01,03,03,45,1002.37
2008,01,03,03,46,1002.37
2008,01,03,03,47,1002.37
2008,01,03,03,48,1002.34
2008,01,03,03,49,1002.34
2008,01,03,03,50,1002.36
2008,01,03,03,51,1002.27
2008,01,03,03,52,1002.30
2008,01,03,03,53,1002.27
2008,01,03,03,54,1002.24
2008,01,03,03,55,1002.24
2008,01,03,03,56,1002.24
2008,01,03,03,57,1002.17
2008,01,03,03,58,1002.13
2008,01,03,03,59,1002.12
2008,01,03,04,00,1002.03
2008,01,03,04,01,1002.10
2008,01,03,04,02,1002.00
2008,01,03,04,03,1001.93
2008,01,03,04,04,1001.90
2008,01,03,04,05,1001.90
2008,01,03,04,06,1001.97
2008,01,03,04,07,1001.90
2008,01,03,04,08,1001.86
2008,01,03,04,09,1001.90
2008,01,03,04,10,1001.80
2008,01,03,04,11,1001.82
2008,01,03,04,12,1001.69
2008,01,03,04,13,1001.80
2008,01,03,04,14,1001.73
2008,01,03,04,15,1001.73
2008,01,03,04,16,1001.69
2008,01,03,04,17,1001.66
2008,01,03,04,18,1001.66
2008,01,03,04,19,1001.66
2008,01,03,04,20,1001.63
2008,01,03,04,21,1001.56
2008,01,03,04,22,1001.46
2008,01,03,04,23,1001.46
2008,01,03,04,24,1001.42
2008,01,03,04,25,1001.42
2008,01,03,04,26,1001.39
2008,01,03,04,27,1001.32
2008,01,03,04,28,1001.39
2008,01,03,04,29,1001.39
2008,01,03,04,30,1001.42
2008,01,03,04,31,1001.39
2008,01,03,04,32,1001.42
2008,01,03,04,33,1001.39
2008,01,03,04,34,1001.39
2008,01,03,04,35,1001.32
2008,01,03,04,36,1001.25
2008,01,03,04,37,1001.19
2008,01,03,04,38,1001.15
2008,01,03,04,39,1001.08
2008,01,03,04,40,1001.05
2008,01,03,04,41,1001.05
2008,01,03,04,42,1001.05
2008,01,03,04,43,1000.98
2008,01,03,04,44,1000.95
2008,01,03,04,45,1000.88
2008,01,03,04,46,1000.88
2008,01,03,04,47,1000.88
2008,01,03,04,48,1000.95
2008,01,03,04,49,1000.92
2008,01,03,04,50,1000.92
2008,01,03,04,51,1000.85
2008,01,03,04,52,1000.88
2008,01,03,04,53,1000.85
2008,01,03,04,54,1000.88
2008,01,03,04,55,1000.85
2008,01,03,04,56,1000.75
2008,01,03,04,57,1000.75
2008,01,03,04,58,1000.68
2008,01,03,04,59,1000.68
2008,01,03,05,00,1000.61
2008,01,03,05,01,1000.64
2008,01,03,05,02,1000.58
2008,01,03,05,03,1000.61
2008,01,03,05,04,1000.54
2008,01,03,05,05,1000.54
2008,01,03,05,06,1000.48
2008,01,03,05,07,1000.51
2008,01,03,05,08,1000.48
2008,01,03,05,09,1000.51
2008,01,03,05,10,1000.48
2008,01,03,05,11,1000.61
2008,01,03,05,12,1000.48
2008,01,03,05,13,1000.48
2008,01,03,05,14,1000.44
2008,01,03,05,15,1000.41
2008,01,03,05,16,1000.31
2008,01,03,05,17,1000.27
2008,01,03,05,18,1000.17
2008,01,03,05,19,1000.07
2008,01,03,05,20,1000.10
2008,01,03,05,21,1000.07
2008,01,03,05,22,1000.10
2008,01,03,05,23,1000.07
2008,01,03,05,24,1000.10
2008,01,03,05,25,1000.10
2008,01,03,05,26,1000.07
2008,01,03,05,27,1000.07
2008,01,03,05,28,1000.03
2008,01,03,05,29,1000.03
2008,01,03,05,30,1000.00
2008,01,03,05,31,999.93
2008,01,03,05,32,999.93
2008,01,03,05,33,999.93
2008,01,03,05,34,999.87
2008,01,03,05,35,999.73
2008,01,03,05,36,999.66
2008,01,03,05,37,999.66
2008,01,03,05,38,999.73
2008,01,03,05,39,999.73
2008,01,03,05,40,999.76
2008,01,03,05,41,999.73
2008,01,03,05,42,999.70
2008,01,03,05,43,999.63
2008,01,03,05,44,999.59
2008,01,03,05,45,999.53
2008,01,03,05,46,999.46
2008,01,03,05,47,999.43
2008,01,03,05,48,999.43
2008,01,03,05,49,999.39
2008,01,03,05,50,999.43
2008,01,03,05,51,999.32
2008,01,03,05,52,999.36
2008,01,03,05,53,999.36
2008,01,03,05,54,999.32
2008,01,03,05,55,999.36
2008,01,03,05,56,999.39
2008,01,03,05,57,999.32
2008,01,03,05,58,999.29
2008,01,03,05,59,999.32
2008,01,03,06,00,999.29
2008,01,03,06,01,999.19
2008,01,03,06,02,999.19
2008,01,03,06,03,999.12
2008,01,03,06,04,999.12
2008,01,03,06,05,999.02
2008,01,03,06,06,998.95
2008,01,03,06,07,998.88
2008,01,03,06,08,998.88
2008,01,03,06,09,998.88
2008,01,03,06,10,998.92
2008,01,03,06,11,998.85
2008,01,03,06,12,998.85
2008,01,03,06,13,998.85
2008,01,03,06,14,998.82
2008,01,03,06,15,998.75
2008,01,03,06,16,998.71
2008,01,03,06,17,998.65
2008,01,03,06,18,998.58
2008,01,03,06,19,998.61
2008,01,03,06,20,998.65
2008,01,03,06,21,998.51
2008,01,03,06,22,998.51
2008,01,03,06,23,998.51
2008,01,03,06,24,998.48
2008,01,03,06,25,998.48
2008,01,03,06,26,998.48
2008,01,03,06,27,998.41
2008,01,03,06,28,998.34
2008,01,03,06,29,998.43
2008,01,03,06,30,998.44
2008,01,03,06,31,998.51
2008,01,03,06,32,998.44
2008,01,03,06,33,998.41
2008,01,03,06,34,998.34
2008,01,03,06,35,998.34
2008,01,03,06,36,998.34
2008,01,03,06,37,998.34
2008,01,03,06,38,998.34
2008,01,03,06,39,998.31
2008,01,03,06,40,998.24
2008,01,03,06,41,998.21
2008,01,03,06,42,998.24
2008,01,03,06,43,998.24
2008,01,03,06,44,998.14
2008,01,03,06,45,998.14
2008,01,03,06,46,998.04
2008,01,03,06,47,998.07
2008,01,03,06,48,998.04
2008,01,03,06,49,998.07
2008,01,03,06,50,997.95
2008,01,03,06,51,997.97
2008,01,03,06,52,997.90
2008,01,03,06,53,997.87
2008,01,03,06,54,997.83
2008,01,03,06,55,997.83
2008,01,03,06,56,997.80
2008,01,03,06,57,997.83
2008,01,03,06,58,997.80
2008,01,03,06,59,997.80
2008,01,03,07,00,997.73
2008,01,03,07,01,997.77
2008,01,03,07,02,997.77
2008,01,03,07,03,997.70
2008,01,03,07,04,997.73
2008,01,03,07,05,997.63
2008,01,03,07,06,997.63
2008,01,03,07,07,997.63
2008,01,03,07,08,997.56
2008,01,03,07,09,997.50
2008,01,03,07,10,997.50
2008,01,03,07,11,997.46
2008,01,03,07,12,997.46
2008,01,03,07,13,997.46
2008,01,03,07,14,997.50
2008,01,03,07,15,997.40
2008,01,03,07,16,997.39
2008,01,03,07,17,997.36
2008,01,03,07,18,997.26
2008,01,03,07,19,997.19
2008,01,03,07,20,997.12
2008,01,03,07,21,997.12
2008,01,03,07,22,997.05
2008,01,03,07,23,997.02
2008,01,03,07,24,997.02
2008,01,03,07,25,996.99
2008,01,03,07,26,996.99
2008,01,03,07,27,996.92
2008,01,03,07,28,996.95
2008,01,03,07,29,996.95
2008,01,03,07,30,996.92
2008,01,03,07,31,996.83
2008,01,03,07,32,996.85
2008,01,03,07,33,996.78
2008,01,03,07,34,996.78
2008,01,03,07,35,996.75
2008,01,03,07,36,996.75
2008,01,03,07,37,996.75
2008,01,03,07,38,996.78
2008,01,03,07,39,996.78
2008,01,03,07,40,996.75
2008,01,03,07,41,996.75
2008,01,03,07,42,996.72
2008,01,03,07,43,996.68
2008,01,03,07,44,996.68
2008,01,03,07,45,996.61
2008,01,03,07,46,996.58
2008,01,03,07,47,996.55
2008,01,03,07,48,996.58
2008,01,03,07,49,996.65
2008,01,03,07,50,996.68
2008,01,03,07,51,996.58
2008,01,03,07,52,996.61
2008,01,03,07,53,996.58
2008,01,03,07,54,996.58
2008,01,03,07,55,996.58
2008,01,03,07,56,996.51
2008,01,03,07,57,996.51
2008,01,03,07,58,996.48
2008,01,03,07,59,996.39
2008,01,03,08,00,996.41
2008,01,03,08,01,996.34
2008,01,03,08,02,996.28
2008,01,03,08,03,996.24
2008,01,03,08,04,996.24
2008,01,03,08,05,996.17
2008,01,03,08,06,996.14
2008,01,03,08,07,996.14
2008,01,03,08,08,996.07
2008,01,03,08,09,996.01
2008,01,03,08,10,995.94
2008,01,03,08,11,995.90
2008,01,03,08,12,995.84
2008,01,03,08,13,995.87
2008,01,03,08,14,995.90
2008,01,03,08,15,995.80
2008,01,03,08,16,995.77
2008,01,03,08,17,995.77
2008,01,03,08,18,995.73
2008,01,03,08,19,995.73
2008,01,03,08,20,995.64
2008,01,03,08,21,995.56
2008,01,03,08,22,995.66
2008,01,03,08,23,995.63
2008,01,03,08,24,995.53
2008,01,03,08,25,995.53
2008,01,03,08,26,995.46
2008,01,03,08,27,995.46
2008,01,03,08,28,995.40
2008,01,03,08,29,995.36
2008,01,03,08,30,995.33
2008,01,03,08,31,995.29
2008,01,03,08,32,995.33
2008,01,03,08,33,995.29
2008,01,03,08,34,995.23
2008,01,03,08,35,995.23
2008,01,03,08,36,995.16
2008,01,03,08,37,995.09
2008,01,03,08,38,995.06
2008,01,03,08,39,995.02
2008,01,03,08,40,994.96
2008,01,03,08,41,994.96
2008,01,03,08,42,994.89
2008,01,03,08,43,994.85
2008,01,03,08,44,994.85
2008,01,03,08,45,994.89
2008,01,03,08,46,994.82
2008,01,03,08,47,994.75
2008,01,03,08,48,994.72
2008,01,03,08,49,994.72
2008,01,03,08,50,994.72
2008,01,03,08,51,994.75
2008,01,03,08,52,994.72
2008,01,03,08,53,994.75
2008,01,03,08,54,994.68
2008,01,03,08,55,994.68
2008,01,03,08,56,994.72
2008,01,03,08,57,994.68
2008,01,03,08,58,994.68
2008,01,03,08,59,994.62
2008,01,03,09,00,994.68
2008,01,03,09,01,994.62
2008,01,03,09,02,994.58
2008,01,03,09,03,994.55
2008,01,03,09,04,994.58
2008,01,03,09,05,994.55
2008,01,03,09,06,994.65
2008,01,03,09,07,994.68
2008,01,03,09,08,994.68
2008,01,03,09,09,994.72
2008,01,03,09,10,994.68
2008,01,03,09,11,994.68
2008,01,03,09,12,994.68
2008,01,03,09,13,994.72
2008,01,03,09,14,994.68
2008,01,03,09,15,994.72
2008,01,03,09,16,994.72
2008,01,03,09,17,994.65
2008,01,03,09,18,994.72
2008,01,03,09,19,994.62
2008,01,03,09,20,994.65
2008,01,03,09,21,994.52
2008,01,03,09,22,994.58
2008,01,03,09,23,994.58
2008,01,03,09,24,994.48
2008,01,03,09,25,994.55
2008,01,03,09,26,994.52
2008,01,03,09,27,994.48
2008,01,03,09,28,994.45
2008,01,03,09,29,994.45
2008,01,03,09,30,994.48
2008,01,03,09,31,994.45
2008,01,03,09,32,994.41
2008,01,03,09,33,994.38
2008,01,03,09,34,994.35
2008,01,03,09,35,994.35
2008,01,03,09,36,994.35
2008,01,03,09,37,994.31
2008,01,03,09,38,994.28
2008,01,03,09,39,994.21
2008,01,03,09,40,994.21
2008,01,03,09,41,994.14
2008,01,03,09,42,994.24
2008,01,03,09,43,994.21
2008,01,03,09,44,994.11
2008,01,03,09,45,994.07
2008,01,03,09,46,994.01
2008,01,03,09,47,994.04
2008,01,03,09,48,994.04
2008,01,03,09,49,993.94
2008,01,03,09,50,993.91
2008,01,03,09,51,993.87
2008,01,03,09,52,993.91
2008,01,03,09,53,993.84
2008,01,03,09,54,993.84
2008,01,03,09,55,993.84
2008,01,03,09,56,993.84
2008,01,03,09,57,993.77
2008,01,03,09,58,993.74
2008,01,03,09,59,993.74
2008,01,03,10,00,993.74
2008,01,03,10,01,993.70
2008,01,03,10,02,993.70
2008,01,03,10,03,993.74
2008,01,03,10,04,993.64
2008,01,03,10,05,993.60
2008,01,03,10,06,993.57
2008,01,03,10,07,993.63
2008,01,03,10,08,993.60
2008,01,03,10,09,993.57
2008,01,03,10,10,993.53
2008,01,03,10,11,993.50
2008,01,03,10,12,993.57
2008,01,03,10,13,993.47
2008,01,03,10,14,993.50
2008,01,03,10,15,993.47
2008,01,03,10,16,993.47
2008,01,03,10,17,993.40
2008,01,03,10,18,993.40
2008,01,03,10,19,993.36
2008,01,03,10,20,993.30
2008,01,03,10,21,993.26
2008,01,03,10,22,993.23
2008,01,03,10,23,993.16
2008,01,03,10,24,993.23
2008,01,03,10,25,993.23
2008,01,03,10,26,993.16
2008,01,03,10,27,993.13
2008,01,03,10,28,993.13
2008,01,03,10,29,993.09
2008,01,03,10,30,993.06
2008,01,03,10,31,993.03
2008,01,03,10,32,992.92
2008,01,03,10,33,992.89
2008,01,03,10,34,992.92
2008,01,03,10,35,992.80
2008,01,03,10,36,992.82
2008,01,03,10,37,992.69
2008,01,03,10,38,992.65
2008,01,03,10,39,992.62
2008,01,03,10,40,992.56
2008,01,03,10,41,992.58
2008,01,03,10,42,992.52
2008,01,03,10,43,992.48
2008,01,03,10,44,992.48
2008,01,03,10,45,992.48
2008,01,03,10,46,992.38
2008,01,03,10,47,992.28
2008,01,03,10,49,992.19
2008,01,03,10,50,992.18
2008,01,03,10,51,992.17
2008,01,03,10,52,992.14
2008,01,03,10,53,992.12
2008,01,03,10,54,992.08
2008,01,03,10,55,992.07
2008,01,03,10,56,992.04
2008,01,03,10,57,992.03
2008,01,03,10,58,991.98
2008,01,03,10,59,991.99
2008,01,03,11,00,991.99
2008,01,03,11,01,991.93
2008,01,03,11,02,991.91
2008,01,03,11,03,991.92
2008,01,03,11,04,991.91
2008,01,03,11,05,991.82
2008,01,03,11,06,991.82
2008,01,03,11,07,991.76
2008,01,03,11,08,991.72
2008,01,03,11,09,991.66
2008,01,03,11,10,991.65
2008,01,03,11,11,991.65
2008,01,03,11,12,991.60
2008,01,03,11,13,991.59
2008,01,03,11,14,991.50
2008,01,03,11,15,991.41
2008,01,03,11,16,991.43
2008,01,03,11,17,991.42
2008,01,03,11,18,991.40
2008,01,03,11,19,991.37
2008,01,03,11,20,991.27
2008,01,03,11,21,991.29
2008,01,03,11,22,991.25
2008,01,03,11,23,991.21
2008,01,03,11,24,991.15
2008,01,03,11,25,991.13
2008,01,03,11,26,991.12
2008,01,03,11,27,991.08
2008,01,03,11,28,991.05
2008,01,03,11,29,991.11
2008,01,03,11,30,991.04
2008,01,03,11,31,990.95
2008,01,03,11,32,990.93
2008,01,03,11,33,990.92
2008,01,03,11,34,990.88
2008,01,03,11,35,990.81
2008,01,03,11,36,990.78
2008,01,03,11,37,990.74
2008,01,03,11,38,990.65
2008,01,03,11,39,990.63
2008,01,03,11,40,990.56
2008,01,03,11,41,990.56
2008,01,03,11,42,990.44
2008,01,03,11,43,990.41
2008,01,03,11,44,990.35
2008,01,03,11,45,990.34
2008,01,03,11,46,990.28
2008,01,03,11,47,990.26
2008,01,03,11,48,990.18
2008,01,03,11,49,990.17
2008,01,03,11,50,990.13
2008,01,03,11,51,990.08
2008,01,03,11,52,990.09
2008,01,03,11,53,990.12
2008,01,03,11,54,990.13
2008,01,03,11,55,990.04
2008,01,03,11,56,989.91
2008,01,03,11,57,989.90
2008,01,03,11,58,989.87
2008,01,03,11,59,989.83
2008,01,03,12,00,989.75
2008,01,03,12,01,989.67
2008,01,03,12,02,989.67
2008,01,03,12,03,989.66
2008,01,03,12,04,989.62
2008,01,03,12,05,989.56
2008,01,03,12,06,989.52
2008,01,03,12,07,989.46
2008,01,03,12,08,989.42
2008,01,03,12,09,989.36
2008,01,03,12,10,989.31
2008,01,03,12,11,989.32
2008,01,03,12,12,989.28
2008,01,03,12,13,989.21
2008,01,03,12,14,989.13
2008,01,03,12,15,989.12
2008,01,03,12,16,989.09
2008,01,03,12,17,989.04
2008,01,03,12,18,988.95
2008,01,03,12,19,988.93
2008,01,03,12,20,988.90
2008,01,03,12,21,988.79
2008,01,03,12,22,988.78
2008,01,03,12,23,988.74
2008,01,03,12,24,988.68
2008,01,03,12,25,988.65
2008,01,03,12,26,988.60
2008,01,03,12,27,988.55
2008,01,03,12,28,988.53
2008,01,03,12,29,988.44
2008,01,03,12,30,988.40
2008,01,03,12,31,988.31
2008,01,03,12,32,988.28
2008,01,03,12,33,988.29
2008,01,03,12,34,988.31
2008,01,03,12,35,988.27
2008,01,03,12,36,988.21
2008,01,03,12,37,988.16
2008,01,03,12,38,988.12
2008,01,03,12,39,988.18
2008,01,03,12,40,988.14
2008,01,03,12,41,987.98
2008,01,03,12,42,987.87
2008,01,03,12,43,987.84
2008,01,03,12,44,987.82
2008,01,03,12,45,987.75
2008,01,03,12,46,987.76
2008,01,03,12,47,987.70
2008,01,03,12,48,987.64
2008,01,03,12,49,987.64
2008,01,03,12,50,987.64
2008,01,03,12,51,987.66
2008,01,03,12,52,987.61
2008,01,03,12,53,987.58
2008,01,03,12,54,987.43
2008,01,03,12,55,987.35
2008,01,03,12,56,987.29
2008,01,03,12,57,987.28
2008,01,03,12,58,987.29
2008,01,03,12,59,987.26
2008,01,03,13,00,987.20
2008,01,03,13,01,987.21
2008,01,03,13,02,987.22
2008,01,03,13,03,987.15
2008,01,03,13,04,987.08
2008,01,03,13,05,987.01
2008,01,03,13,06,987.04
2008,01,03,13,07,986.95
2008,01,03,13,08,986.87
2008,01,03,13,09,986.78
2008,01,03,13,10,986.82
2008,01,03,13,11,986.80
2008,01,03,13,12,986.82
2008,01,03,13,13,986.78
2008,01,03,13,14,986.84
2008,01,03,13,15,986.78
2008,01,03,13,16,986.70
2008,01,03,13,17,986.56
2008,01,03,13,18,986.55
2008,01,03,13,19,986.47
2008,01,03,13,20,986.37
2008,01,03,13,21,986.33
2008,01,03,13,22,986.31
2008,01,03,13,23,986.19
2008,01,03,13,24,986.21
2008,01,03,13,25,986.15
2008,01,03,13,26,986.05
2008,01,03,13,27,986.04
2008,01,03,13,28,985.97
2008,01,03,13,29,985.90
2008,01,03,13,30,985.87
2008,01,03,13,31,985.97
2008,01,03,13,32,985.98
2008,01,03,13,33,985.83
2008,01,03,13,34,985.73
2008,01,03,13,35,985.72
2008,01,03,13,36,985.77
2008,01,03,13,37,985.72
2008,01,03,13,38,985.64
2008,01,03,13,39,985.63
2008,01,03,13,40,985.59
2008,01,03,13,41,985.52
2008,01,03,13,42,985.52
2008,01,03,13,43,985.43
2008,01,03,13,44,985.42
2008,01,03,13,45,985.45
2008,01,03,13,46,985.36
2008,01,03,13,47,985.34
2008,01,03,13,48,985.33
2008,01,03,13,49,985.30
2008,01,03,13,50,985.30
2008,01,03,13,51,985.27
2008,01,03,13,52,985.16
2008,01,03,13,53,985.14
2008,01,03,13,54,985.16
2008,01,03,13,55,985.12
2008,01,03,13,56,985.08
2008,01,03,13,57,985.12
2008,01,03,13,58,985.09
2008,01,03,13,59,985.06
2008,01,03,14,00,984.99
2008,01,03,14,01,984.95
2008,01,03,14,02,984.99
2008,01,03,14,03,984.93
2008,01,03,14,04,984.93
2008,01,03,14,05,984.91
2008,01,03,14,06,984.84
2008,01,03,14,07,984.90
2008,01,03,14,08,984.88
2008,01,03,14,09,984.78
2008,01,03,14,10,984.73
2008,01,03,14,11,984.89
2008,01,03,14,12,984.87
2008,01,03,14,13,984.89
2008,01,03,14,14,984.81
2008,01,03,14,15,984.74
2008,01,03,14,16,984.79
2008,01,03,14,17,984.75
2008,01,03,14,18,984.70
2008,01,03,14,19,984.71
2008,01,03,14,20,984.66
2008,01,03,14,21,984.64
2008,01,03,14,22,984.50
2008,01,03,14,23,984.62
2008,01,03,14,24,984.60
2008,01,03,14,25,984.61
2008,01,03,14,26,984.53
2008,01,03,14,27,984.52
2008,01,03,14,28,984.48
2008,01,03,14,29,984.47
2008,01,03,14,30,984.51
2008,01,03,14,31,984.38
2008,01,03,14,32,984.33
2008,01,03,14,33,984.39
2008,01,03,14,34,984.54
2008,01,03,14,35,984.55
2008,01,03,14,36,984.52
2008,01,03,14,37,984.51
2008,01,03,14,38,984.64
2008,01,03,14,39,984.67
2008,01,03,14,40,984.60
2008,01,03,14,41,984.63
2008,01,03,14,42,984.61
2008,01,03,14,43,984.57
2008,01,03,14,44,984.59
2008,01,03,14,45,984.59
2008,01,03,14,46,984.58
2008,01,03,14,47,984.52
2008,01,03,14,48,984.45
2008,01,03,14,49,984.42
2008,01,03,14,50,984.41
2008,01,03,14,51,984.37
2008,01,03,14,52,984.30
2008,01,03,14,53,984.35
2008,01,03,14,54,984.32
2008,01,03,14,55,984.33
2008,01,03,14,56,984.36
2008,01,03,14,57,984.36
2008,01,03,14,58,984.35
2008,01,03,14,59,984.34
2008,01,03,15,00,984.43
2008,01,03,15,01,984.45
2008,01,03,15,02,984.39
2008,01,03,15,03,984.42
2008,01,03,15,04,984.51
2008,01,03,15,05,984.43
2008,01,03,15,06,984.46
2008,01,03,15,07,984.44
2008,01,03,15,08,984.36
2008,01,03,15,09,984.48
2008,01,03,15,10,984.46
2008,01,03,15,11,984.47
2008,01,03,15,12,984.54
2008,01,03,15,13,984.60
2008,01,03,15,14,984.62
2008,01,03,15,15,984.57
2008,01,03,15,16,984.60
2008,01,03,15,17,984.63
2008,01,03,15,18,984.62
2008,01,03,15,19,984.61
2008,01,03,15,20,984.71
2008,01,03,15,21,984.77
2008,01,03,15,22,984.76
2008,01,03,15,23,984.59
2008,01,03,15,24,984.61
2008,01,03,15,25,984.69
2008,01,03,15,26,984.72
2008,01,03,15,27,984.84
2008,01,03,15,28,984.86
2008,01,03,15,29,984.82
2008,01,03,15,30,984.70
2008,01,03,15,31,984.72
2008,01,03,15,32,984.60
2008,01,03,15,33,984.67
2008,01,03,15,34,984.70
2008,01,03,15,35,984.70
2008,01,03,15,36,984.58
2008,01,03,15,37,984.59
2008,01,03,15,38,984.67
2008,01,03,15,39,984.62
2008,01,03,15,40,984.72
2008,01,03,15,41,984.64
2008,01,03,15,42,984.70
2008,01,03,15,43,984.80
2008,01,03,15,44,984.62
2008,01,03,15,45,984.84
2008,01,03,15,46,984.86
2008,01,03,15,47,984.67
2008,01,03,15,48,984.60
2008,01,03,15,49,984.73
2008,01,03,15,50,984.77
2008,01,03,15,51,984.82
2008,01,03,15,52,984.91
2008,01,03,15,53,984.85
2008,01,03,15,54,984.84
2008,01,03,15,55,984.85
2008,01,03,15,56,984.81
2008,01,03,15,57,984.84
2008,01,03,15,58,984.78
2008,01,03,15,59,984.88
2008,01,03,16,00,984.92
2008,01,03,16,01,984.85
2008,01,03,16,02,984.85
2008,01,03,16,03,984.89
2008,01,03,16,04,984.85
2008,01,03,16,05,984.96
2008,01,03,16,06,984.89
2008,01,03,16,07,984.85
2008,01,03,16,08,984.84
2008,01,03,16,09,984.90
2008,01,03,16,10,985.04
2008,01,03,16,11,984.96
2008,01,03,16,12,985.05
2008,01,03,16,13,984.94
2008,01,03,16,14,984.97
2008,01,03,16,15,984.94
2008,01,03,16,16,985.33
2008,01,03,16,17,985.33
2008,01,03,16,18,985.48
2008,01,03,16,19,985.52
2008,01,03,16,20,985.57
2008,01,03,16,21,985.72
2008,01,03,16,22,985.84
2008,01,03,16,23,985.82